| time (UTC) | temp F | wind direction | speed MPH | gust MPH | rain 1hr in | rain 24hr in | rain mn in | humidity % | barometer mb |
| 20260510084602 | 48 | 319 | 0.0 | 0.0 | 0.00 | 0.00 | 0.00 | 53 | 1019.6 |
| 20260510084037 | 48 | 319 | 0.0 | 1.0 | 0.00 | 0.00 | 0.00 | 53 | 1019.6 |
| 20260510083553 | 48 | 319 | 0.0 | 1.0 | 0.00 | 0.00 | 0.00 | 54 | 1019.7 |
| 20260510083047 | 49 | 319 | 0.0 | 1.0 | 0.00 | 0.00 | 0.00 | 53 | 1019.6 |
| 20260510082034 | 49 | 319 | 0.0 | 0.0 | 0.00 | 0.00 | 0.00 | 53 | 1019.5 |
| 20260510081550 | 49 | 319 | 0.0 | 1.0 | 0.00 | 0.00 | 0.00 | 52 | 1019.5 |
| 20260510081046 | 49 | 319 | 0.0 | 2.0 | 0.00 | 0.00 | 0.00 | 52 | 1019.5 |
| 20260510080617 | 49 | 319 | 1.0 | 2.0 | 0.00 | 0.00 | 0.00 | 52 | 1019.5 |
| 20260510080053 | 49 | 319 | 1.0 | 2.0 | 0.00 | 0.00 | 0.00 | 53 | 1019.5 |
| 20260510075549 | 49 | 319 | 0.0 | 3.0 | 0.00 | 0.00 | 0.00 | 51 | 1019.5 |
| 20260510075044 | 50 | 319 | 0.0 | 3.0 | 0.00 | 0.00 | 0.00 | 51 | 1019.4 |
| 20260510074540 | 50 | 319 | 0.0 | 0.0 | 0.00 | 0.00 | 0.00 | 50 | 1019.2 |
| 20260510074036 | 50 | 319 | 0.0 | 2.0 | 0.00 | 0.00 | 0.00 | 50 | 1019.0 |
| 20260510073531 | 51 | 319 | 0.0 | 3.0 | 0.00 | 0.00 | 0.00 | 49 | 1019.1 |
| 20260510073047 | 51 | 319 | 1.0 | 4.0 | 0.00 | 0.00 | 0.00 | 49 | 1019.0 |
| 20260510072545 | 51 | 319 | 1.0 | 4.0 | 0.00 | 0.00 | 0.00 | 48 | 1018.9 |
| 20260510072042 | 51 | 319 | 2.0 | 4.0 | 0.00 | 0.00 | 0.00 | 48 | 1018.9 |
| 20260510071540 | 51 | 319 | 1.0 | 2.0 | 0.00 | 0.00 | 0.00 | 47 | 1018.8 |
| 20260510071054 | 51 | 319 | 1.0 | 4.0 | 0.00 | 0.00 | 0.00 | 47 | 1018.9 |
| 20260510070600 | 52 | 319 | 2.0 | 4.0 | 0.00 | 0.00 | 0.00 | 46 | 1018.8 |
| 20260510070037 | 52 | 319 | 1.0 | 4.0 | 0.00 | 0.00 | 0.00 | 46 | 1018.8 |
| 20260510065533 | 52 | 319 | 2.0 | 4.0 | 0.00 | 0.00 | 0.00 | 47 | 1018.8 |
| 20260510065049 | 52 | 318 | 2.0 | 4.0 | 0.00 | 0.00 | 0.00 | 47 | 1018.7 |
| 20260510064544 | 52 | 323 | 2.0 | 3.0 | 0.00 | 0.00 | 0.00 | 46 | 1018.7 |
| 20260510064042 | 52 | 323 | 1.0 | 5.0 | 0.00 | 0.00 | 0.00 | 47 | 1018.6 |
| 20260510063559 | 52 | 323 | 2.0 | 5.0 | 0.00 | 0.00 | 0.00 | 47 | 1018.6 |
| 20260510063033 | 53 | 322 | 2.0 | 4.0 | 0.00 | 0.00 | 0.00 | 47 | 1018.6 |
| 20260510062533 | 53 | 322 | 2.0 | 5.0 | 0.00 | 0.00 | 0.00 | 48 | 1018.7 |
| 20260510062050 | 53 | 321 | 3.0 | 5.0 | 0.00 | 0.00 | 0.00 | 47 | 1018.7 |
| 20260510061547 | 53 | 321 | 2.0 | 4.0 | 0.00 | 0.00 | 0.00 | 47 | 1018.7 |
| 20260510061043 | 53 | 321 | 2.0 | 5.0 | 0.00 | 0.00 | 0.00 | 46 | 1018.5 |
| 20260510060552 | 54 | 321 | 2.0 | 5.0 | 0.00 | 0.00 | 0.00 | 46 | 1018.3 |
| 20260510060051 | 54 | 317 | 2.0 | 3.0 | 0.00 | 0.00 | 0.00 | 46 | 1018.0 |
| 20260510055546 | 54 | 317 | 1.0 | 3.0 | 0.00 | 0.00 | 0.00 | 45 | 1018.0 |
| 20260510055042 | 54 | 317 | 2.0 | 3.0 | 0.00 | 0.00 | 0.00 | 45 | 1017.8 |
| 20260510054537 | 54 | 317 | 2.0 | 4.0 | 0.00 | 0.00 | 0.00 | 45 | 1017.6 |
| 20260510054034 | 54 | 316 | 2.0 | 4.0 | 0.00 | 0.00 | 0.00 | 45 | 1017.4 |
| 20260510053550 | 55 | 316 | 2.0 | 6.0 | 0.00 | 0.00 | 0.00 | 45 | 1017.3 |
| 20260510053047 | 55 | 316 | 2.0 | 6.0 | 0.00 | 0.00 | 0.00 | 44 | 1017.3 |
| 20260510052540 | 55 | 314 | 2.0 | 4.0 | 0.00 | 0.00 | 0.00 | 45 | 1017.1 |
| 20260510052036 | 55 | 313 | 2.0 | 3.0 | 0.00 | 0.00 | 0.00 | 45 | 1017.0 |
| 20260510051533 | 55 | 312 | 1.0 | 3.0 | 0.00 | 0.00 | 0.00 | 44 | 1017.0 |
| 20260510051111 | 55 | 312 | 0.0 | 1.0 | 0.00 | 0.00 | 0.00 | 45 | 1017.1 |
| 20260510050558 | 55 | 312 | 0.0 | 1.0 | 0.00 | 0.00 | 0.00 | 44 | 1017.0 |
| 20260510050056 | 56 | 312 | 0.0 | 2.0 | 0.00 | 0.00 | 0.00 | 43 | 1016.9 |
| 20260510045601 | 56 | 312 | 1.0 | 2.0 | 0.00 | 0.00 | 0.00 | 43 | 1016.9 |
| 20260510045042 | 56 | 312 | 1.0 | 3.0 | 0.00 | 0.00 | 0.00 | 43 | 1016.7 |
| 20260510044555 | 57 | 312 | 2.0 | 4.0 | 0.00 | 0.00 | 0.00 | 42 | 1016.8 |
| 20260510044048 | 57 | 332 | 2.0 | 4.0 | 0.00 | 0.00 | 0.00 | 42 | 1016.7 |
| 20260510043545 | 57 | 340 | 2.0 | 5.0 | 0.00 | 0.00 | 0.00 | 43 | 1016.6 |
| 20260510043106 | 57 | 340 | 2.0 | 5.0 | 0.00 | 0.00 | 0.00 | 42 | 1016.5 |
| 20260510042542 | 57 | 310 | 1.0 | 6.0 | 0.00 | 0.00 | 0.00 | 42 | 1016.3 |
| 20260510042100 | 58 | 326 | 2.0 | 5.0 | 0.00 | 0.00 | 0.00 | 42 | 1016.2 |
| 20260510041535 | 58 | 322 | 2.0 | 5.0 | 0.00 | 0.00 | 0.00 | 42 | 1016.2 |
| 20260510041033 | 58 | 329 | 1.0 | 4.0 | 0.00 | 0.00 | 0.00 | 41 | 1016.1 |
| 20260510040603 | 59 | 329 | 2.0 | 4.0 | 0.00 | 0.00 | 0.00 | 41 | 1016.1 |
| 20260510040042 | 59 | 341 | 2.0 | 7.0 | 0.00 | 0.00 | 0.00 | 41 | 1015.9 |
| 20260510035540 | 59 | 319 | 3.0 | 6.0 | 0.00 | 0.00 | 0.00 | 41 | 1015.8 |
| 20260510035059 | 59 | 334 | 3.0 | 6.0 | 0.00 | 0.00 | 0.00 | 41 | 1015.7 |
| 20260510034536 | 60 | 325 | 3.0 | 6.0 | 0.00 | 0.00 | 0.00 | 41 | 1015.6 |
| 20260510034034 | 60 | 1 | 4.0 | 6.0 | 0.00 | 0.00 | 0.00 | 40 | 1015.5 |
| 20260510033536 | 60 | 345 | 2.0 | 5.0 | 0.00 | 0.00 | 0.00 | 41 | 1015.4 |
| 20260510033033 | 60 | 333 | 2.0 | 4.0 | 0.00 | 0.00 | 0.00 | 41 | 1015.4 |
| 20260510032550 | 60 | 333 | 2.0 | 6.0 | 0.00 | 0.00 | 0.00 | 41 | 1015.4 |
| 20260510032048 | 60 | 333 | 2.0 | 6.0 | 0.00 | 0.00 | 0.00 | 41 | 1015.2 |
| 20260510031544 | 60 | 8 | 2.0 | 6.0 | 0.00 | 0.00 | 0.00 | 42 | 1015.1 |
| 20260510031043 | 61 | 319 | 2.0 | 4.0 | 0.00 | 0.00 | 0.00 | 42 | 1015.0 |
| 20260510030550 | 61 | 319 | 2.0 | 6.0 | 0.00 | 0.00 | 0.00 | 42 | 1014.9 |
| 20260510030049 | 61 | 339 | 2.0 | 6.0 | 0.00 | 0.00 | 0.00 | 42 | 1014.9 |
| 20260510025544 | 61 | 310 | 2.0 | 4.0 | 0.00 | 0.00 | 0.00 | 42 | 1014.8 |
| 20260510025040 | 61 | 309 | 2.0 | 3.0 | 0.00 | 0.00 | 0.00 | 42 | 1014.6 |
| 20260510024534 | 62 | 309 | 2.0 | 3.0 | 0.00 | 0.00 | 0.00 | 42 | 1014.5 |
| 20260510024050 | 62 | 309 | 1.0 | 3.0 | 0.00 | 0.00 | 0.00 | 42 | 1014.4 |
| 20260510023544 | 62 | 327 | 1.0 | 3.0 | 0.00 | 0.00 | 0.00 | 42 | 1014.2 |
| 20260510023100 | 63 | 327 | 2.0 | 3.0 | 0.00 | 0.00 | 0.00 | 41 | 1014.2 |
| 20260510022533 | 63 | 327 | 2.0 | 5.0 | 0.00 | 0.00 | 0.00 | 41 | 1014.0 |
| 20260510022049 | 63 | 326 | 2.0 | 5.0 | 0.00 | 0.00 | 0.00 | 41 | 1013.9 |
| 20260510021555 | 64 | 326 | 3.0 | 5.0 | 0.00 | 0.00 | 0.00 | 41 | 1013.8 |
| 20260510021050 | 64 | 323 | 2.0 | 4.0 | 0.00 | 0.00 | 0.00 | 41 | 1013.8 |
| 20260510020558 | 64 | 330 | 2.0 | 5.0 | 0.00 | 0.00 | 0.00 | 40 | 1013.6 |
| 20260510020035 | 65 | 330 | 2.0 | 5.0 | 0.00 | 0.00 | 0.00 | 40 | 1013.4 |
| 20260510015552 | 65 | 11 | 2.0 | 6.0 | 0.00 | 0.00 | 0.00 | 40 | 1013.4 |
| 20260510015046 | 66 | 344 | 2.0 | 6.0 | 0.00 | 0.00 | 0.00 | 40 | 1013.2 |
| 20260510014547 | 66 | 341 | 2.0 | 7.0 | 0.00 | 0.00 | 0.00 | 40 | 1013.1 |
| 20260510014043 | 66 | 316 | 3.0 | 7.0 | 0.00 | 0.00 | 0.00 | 39 | 1013.0 |
| 20260510013538 | 66 | 318 | 2.0 | 6.0 | 0.00 | 0.00 | 0.00 | 40 | 1012.9 |
| 20260510013035 | 67 | 348 | 3.0 | 6.0 | 0.00 | 0.00 | 0.00 | 40 | 1012.7 |
| 20260510012531 | 67 | 323 | 2.0 | 5.0 | 0.00 | 0.00 | 0.00 | 41 | 1012.7 |
| 20260510012049 | 67 | 323 | 2.0 | 8.0 | 0.00 | 0.00 | 0.00 | 40 | 1012.6 |
| 20260510011544 | 67 | 336 | 3.0 | 8.0 | 0.00 | 0.00 | 0.00 | 40 | 1012.5 |
| 20260510011039 | 67 | 307 | 3.0 | 5.0 | 0.00 | 0.00 | 0.00 | 40 | 1012.5 |
| 20260510010606 | 68 | 327 | 3.0 | 5.0 | 0.00 | 0.00 | 0.00 | 41 | 1012.4 |
| 20260510010044 | 68 | 341 | 2.0 | 8.0 | 0.00 | 0.00 | 0.00 | 40 | 1012.3 |
| 20260510005538 | 68 | 341 | 3.0 | 9.0 | 0.00 | 0.00 | 0.00 | 39 | 1012.2 |
| 20260510005033 | 68 | 335 | 3.0 | 9.0 | 0.00 | 0.00 | 0.00 | 40 | 1012.1 |
| 20260510004610 | 68 | 335 | 2.0 | 7.0 | 0.00 | 0.00 | 0.00 | 40 | 1012.1 |
| 20260510004045 | 68 | 330 | 3.0 | 11.0 | 0.00 | 0.00 | 0.00 | 40 | 1011.9 |
| 20260510003540 | 68 | 346 | 5.0 | 13.0 | 0.00 | 0.00 | 0.00 | 40 | 1011.9 |
| 20260510003037 | 68 | 339 | 3.0 | 13.0 | 0.00 | 0.00 | 0.00 | 41 | 1011.8 |
| 20260510002533 | 68 | 338 | 3.0 | 8.0 | 0.00 | 0.00 | 0.00 | 42 | 1011.8 |
| 20260510002050 | 68 | 348 | 3.0 | 8.0 | 0.00 | 0.00 | 0.00 | 42 | 1011.8 |
| 20260510001546 | 68 | 312 | 3.0 | 8.0 | 0.00 | 0.00 | 0.00 | 42 | 1011.9 |
| 20260510001103 | 69 | 331 | 3.0 | 8.0 | 0.00 | 0.00 | 0.00 | 43 | 1011.8 |
| 20260510000612 | 69 | 359 | 3.0 | 7.0 | 0.00 | 0.00 | 0.00 | 44 | 1011.8 |
| 20260510000032 | 69 | 321 | 3.0 | 11.0 | 0.00 | 0.00 | 0.00 | 43 | 1011.8 |
| 20260509235548 | 69 | 359 | 4.0 | 11.0 | 0.00 | 0.00 | 0.00 | 43 | 1011.8 |
| 20260509235043 | 69 | 359 | 3.0 | 8.0 | 0.00 | 0.00 | 0.00 | 44 | 1011.8 |
| 20260509234538 | 69 | 329 | 3.0 | 7.0 | 0.00 | 0.00 | 0.00 | 44 | 1011.8 |
| 20260509234036 | 69 | 344 | 4.0 | 7.0 | 0.00 | 0.00 | 0.00 | 44 | 1011.8 |
| 20260509233533 | 69 | 326 | 3.0 | 8.0 | 0.00 | 0.00 | 0.00 | 44 | 1011.8 |
| 20260509233031 | 69 | 300 | 5.0 | 10.0 | 0.00 | 0.00 | 0.00 | 44 | 1011.8 |
| 20260509232549 | 69 | 349 | 4.0 | 10.0 | 0.00 | 0.00 | 0.00 | 44 | 1011.8 |
| 20260509232048 | 69 | 335 | 4.0 | 8.0 | 0.00 | 0.00 | 0.00 | 44 | 1011.7 |
| 20260509231607 | 69 | 314 | 3.0 | 11.0 | 0.00 | 0.00 | 0.00 | 44 | 1011.8 |
| 20260509231045 | 69 | 310 | 5.0 | 11.0 | 0.00 | 0.00 | 0.00 | 44 | 1011.7 |
| 20260509230551 | 70 | 347 | 4.0 | 8.0 | 0.00 | 0.00 | 0.00 | 44 | 1011.7 |
| 20260509230051 | 70 | 1 | 4.0 | 8.0 | 0.00 | 0.00 | 0.00 | 44 | 1011.7 |
| 20260509225547 | 70 | 326 | 6.0 | 8.0 | 0.00 | 0.00 | 0.00 | 44 | 1011.7 |
| 20260509225045 | 70 | 360 | 4.0 | 9.0 | 0.00 | 0.00 | 0.00 | 45 | 1011.7 |
| 20260509224542 | 70 | 319 | 5.0 | 14.0 | 0.00 | 0.00 | 0.00 | 44 | 1011.6 |
| 20260509224040 | 70 | 360 | 8.0 | 14.0 | 0.00 | 0.00 | 0.00 | 45 | 1011.5 |
| 20260509223537 | 70 | 356 | 7.0 | 10.0 | 0.00 | 0.00 | 0.00 | 44 | 1011.3 |
| 20260509223040 | 70 | 353 | 4.0 | 10.0 | 0.00 | 0.00 | 0.00 | 45 | 1011.2 |
| 20260509222536 | 71 | 333 | 5.0 | 13.0 | 0.00 | 0.00 | 0.00 | 44 | 1011.1 |
| 20260509222036 | 71 | 349 | 3.0 | 14.0 | 0.00 | 0.00 | 0.00 | 45 | 1011.1 |
| 20260509221532 | 71 | 344 | 9.0 | 14.0 | 0.00 | 0.00 | 0.00 | 43 | 1011.0 |
| 20260509221050 | 71 | 355 | 5.0 | 11.0 | 0.00 | 0.00 | 0.00 | 44 | 1011.0 |
| 20260509220621 | 70 | 309 | 3.0 | 11.0 | 0.00 | 0.00 | 0.00 | 44 | 1011.0 |
| 20260509220039 | 70 | 338 | 5.0 | 14.0 | 0.00 | 0.00 | 0.00 | 44 | 1010.9 |
| 20260509215535 | 70 | 311 | 5.0 | 9.0 | 0.00 | 0.00 | 0.00 | 43 | 1011.0 |
| 20260509215053 | 70 | 342 | 5.0 | 8.0 | 0.00 | 0.00 | 0.00 | 43 | 1011.0 |
| 20260509214550 | 70 | 336 | 3.0 | 18.0 | 0.00 | 0.00 | 0.00 | 43 | 1010.9 |
| 20260509214047 | 71 | 333 | 5.0 | 18.0 | 0.00 | 0.00 | 0.00 | 42 | 1010.9 |
| 20260509213543 | 71 | 304 | 5.0 | 14.0 | 0.00 | 0.00 | 0.00 | 41 | 1010.8 |
| 20260509213103 | 71 | 352 | 4.0 | 14.0 | 0.00 | 0.00 | 0.00 | 41 | 1010.8 |
| 20260509212539 | 71 | 319 | 4.0 | 11.0 | 0.00 | 0.00 | 0.00 | 41 | 1010.7 |
| 20260509212036 | 71 | 327 | 6.0 | 12.0 | 0.00 | 0.00 | 0.00 | 40 | 1010.6 |
| 20260509211535 | 72 | 1 | 7.0 | 12.0 | 0.00 | 0.00 | 0.00 | 39 | 1010.6 |
| 20260509211033 | 72 | 354 | 5.0 | 17.0 | 0.00 | 0.00 | 0.00 | 39 | 1010.5 |
| 20260509210606 | 72 | 353 | 5.0 | 17.0 | 0.00 | 0.00 | 0.00 | 41 | 1010.4 |
| 20260509210045 | 72 | 350 | 9.0 | 17.0 | 0.00 | 0.00 | 0.00 | 38 | 1010.3 |
| 20260509205604 | 72 | 1 | 6.0 | 17.0 | 0.00 | 0.00 | 0.00 | 39 | 1010.1 |
| 20260509205041 | 73 | 336 | 9.0 | 17.0 | 0.00 | 0.00 | 0.00 | 38 | 1010.0 |
| 20260509204543 | 74 | 335 | 7.0 | 15.0 | 0.00 | 0.00 | 0.00 | 37 | 1009.8 |
| 20260509204040 | 75 | 360 | 6.0 | 15.0 | 0.00 | 0.00 | 0.00 | 34 | 1009.7 |
| 20260509203537 | 77 | 359 | 6.0 | 11.0 | 0.00 | 0.00 | 0.00 | 32 | 1009.8 |
| 20260509203034 | 77 | 321 | 4.0 | 11.0 | 0.00 | 0.00 | 0.00 | 32 | 1009.7 |
| 20260509202533 | 78 | 360 | 6.0 | 10.0 | 0.00 | 0.00 | 0.00 | 30 | 1009.5 |
| 20260509202050 | 78 | 330 | 5.0 | 16.0 | 0.00 | 0.00 | 0.00 | 31 | 1009.5 |
| 20260509201548 | 78 | 314 | 6.0 | 16.0 | 0.00 | 0.00 | 0.00 | 29 | 1009.4 |
| 20260509201108 | 77 | 356 | 6.0 | 12.0 | 0.00 | 0.00 | 0.00 | 30 | 1009.3 |
| 20260509200553 | 78 | 329 | 6.0 | 12.0 | 0.00 | 0.00 | 0.00 | 29 | 1009.3 |
| 20260509200033 | 78 | 319 | 4.0 | 9.0 | 0.00 | 0.00 | 0.00 | 29 | 1009.3 |
| 20260509195551 | 77 | 329 | 2.0 | 10.0 | 0.00 | 0.00 | 0.00 | 29 | 1009.1 |
| 20260509195109 | 77 | 307 | 6.0 | 10.0 | 0.00 | 0.00 | 0.00 | 28 | 1009.2 |
| 20260509194546 | 77 | 297 | 4.0 | 6.0 | 0.00 | 0.00 | 0.00 | 27 | 1009.2 |
| 20260509194043 | 77 | 337 | 3.0 | 11.0 | 0.00 | 0.00 | 0.00 | 27 | 1009.3 |
| 20260509193542 | 78 | 30 | 5.0 | 11.0 | 0.00 | 0.00 | 0.00 | 26 | 1009.2 |
| 20260509193039 | 79 | 326 | 3.0 | 7.0 | 0.00 | 0.00 | 0.00 | 26 | 1009.1 |
| 20260509192538 | 79 | 266 | 3.0 | 5.0 | 0.00 | 0.00 | 0.00 | 29 | 1009.1 |
| 20260509192055 | 79 | 291 | 2.0 | 7.0 | 0.00 | 0.00 | 0.00 | 28 | 1009.0 |
| 20260509191532 | 77 | 296 | 2.0 | 8.0 | 0.00 | 0.00 | 0.00 | 30 | 1009.1 |
| 20260509191033 | 77 | 345 | 5.0 | 8.0 | 0.00 | 0.00 | 0.00 | 28 | 1009.0 |
| 20260509190559 | 77 | 349 | 2.0 | 7.0 | 0.00 | 0.00 | 0.00 | 27 | 1009.0 |
| 20260509190057 | 77 | 301 | 2.0 | 7.0 | 0.00 | 0.00 | 0.00 | 31 | 1009.1 |
| 20260509185532 | 76 | 323 | 2.0 | 10.0 | 0.00 | 0.00 | 0.00 | 31 | 1009.2 |
| 20260509185050 | 75 | 311 | 2.0 | 7.0 | 0.00 | 0.00 | 0.00 | 28 | 1009.0 |
| 20260509184548 | 76 | 326 | 2.0 | 7.0 | 0.00 | 0.00 | 0.00 | 27 | 1009.1 |
| 20260509184107 | 76 | 359 | 2.0 | 7.0 | 0.00 | 0.00 | 0.00 | 31 | 1009.1 |
| 20260509183545 | 76 | 328 | 3.0 | 7.0 | 0.00 | 0.00 | 0.00 | 31 | 1009.1 |
| 20260509183043 | 76 | 330 | 4.0 | 9.0 | 0.00 | 0.00 | 0.00 | 30 | 1009.1 |
| 20260509182541 | 76 | 302 | 3.0 | 12.0 | 0.00 | 0.00 | 0.00 | 29 | 1009.1 |
| 20260509182059 | 76 | 1 | 5.0 | 12.0 | 0.00 | 0.00 | 0.00 | 30 | 1009.1 |
| 20260509181535 | 75 | 360 | 4.0 | 7.0 | 0.00 | 0.00 | 0.00 | 35 | 1009.0 |
| 20260509181053 | 75 | 356 | 2.0 | 7.0 | 0.00 | 0.00 | 0.00 | 30 | 1008.9 |
| 20260509180558 | 75 | 349 | 3.0 | 9.0 | 0.00 | 0.00 | 0.00 | 32 | 1008.9 |
| 20260509180037 | 75 | 356 | 3.0 | 9.0 | 0.00 | 0.00 | 0.00 | 31 | 1009.0 |
| 20260509175536 | 75 | 349 | 3.0 | 9.0 | 0.00 | 0.00 | 0.00 | 32 | 1008.9 |
| 20260509175053 | 74 | 83 | 1.0 | 6.0 | 0.00 | 0.00 | 0.00 | 32 | 1008.8 |
| 20260509174038 | 74 | 334 | 3.0 | 8.0 | 0.00 | 0.00 | 0.00 | 34 | 1008.8 |
| 20260509173556 | 74 | 296 | 3.0 | 8.0 | 0.00 | 0.00 | 0.00 | 33 | 1008.9 |
| 20260509173031 | 73 | 300 | 4.0 | 8.0 | 0.00 | 0.00 | 0.00 | 31 | 1009.0 |
| 20260509172549 | 74 | 310 | 4.0 | 9.0 | 0.00 | 0.00 | 0.00 | 33 | 1009.0 |
| 20260509171539 | 73 | 334 | 5.0 | 7.0 | 0.00 | 0.00 | 0.00 | 33 | 1009.1 |
| 20260509171057 | 72 | 295 | 3.0 | 6.0 | 0.00 | 0.00 | 0.00 | 34 | 1009.1 |
| 20260509170605 | 72 | 341 | 3.0 | 6.0 | 0.00 | 0.00 | 0.00 | 33 | 1009.1 |
| 20260509170107 | 71 | 326 | 3.0 | 7.0 | 0.00 | 0.00 | 0.00 | 33 | 1009.2 |
| 20260509165546 | 71 | 313 | 4.0 | 7.0 | 0.00 | 0.00 | 0.00 | 33 | 1009.2 |
| 20260509165043 | 71 | 316 | 4.0 | 9.0 | 0.00 | 0.00 | 0.00 | 32 | 1009.3 |
| 20260509164540 | 72 | 307 | 4.0 | 9.0 | 0.00 | 0.00 | 0.00 | 34 | 1009.1 |
| 20260509164037 | 72 | 343 | 3.0 | 5.0 | 0.00 | 0.00 | 0.00 | 35 | 1009.0 |
| 20260509163535 | 71 | 342 | 3.0 | 8.0 | 0.00 | 0.00 | 0.00 | 37 | 1009.0 |
| 20260509163032 | 71 | 350 | 4.0 | 8.0 | 0.00 | 0.00 | 0.00 | 35 | 1009.0 |
| 20260509162549 | 71 | 314 | 4.0 | 8.0 | 0.00 | 0.00 | 0.00 | 35 | 1009.0 |
| 20260509162045 | 71 | 329 | 3.0 | 8.0 | 0.00 | 0.00 | 0.00 | 35 | 1009.0 |
| 20260509161543 | 70 | 340 | 4.0 | 7.0 | 0.00 | 0.00 | 0.00 | 36 | 1009.0 |
| 20260509161041 | 70 | 331 | 2.0 | 8.0 | 0.00 | 0.00 | 0.00 | 38 | 1009.0 |
| 20260509160609 | 70 | 260 | 6.0 | 9.0 | 0.00 | 0.00 | 0.00 | 37 | 1008.9 |
| 20260509160111 | 70 | 334 | 6.0 | 11.0 | 0.00 | 0.00 | 0.00 | 36 | 1009.0 |
| 20260509155548 | 70 | 327 | 4.0 | 11.0 | 0.00 | 0.00 | 0.00 | 39 | 1009.1 |
| 20260509155044 | 69 | 305 | 3.0 | 9.0 | 0.00 | 0.00 | 0.00 | 39 | 1009.1 |
| 20260509154542 | 69 | 359 | 4.0 | 6.0 | 0.00 | 0.00 | 0.00 | 42 | 1009.3 |
| 20260509154041 | 68 | 302 | 4.0 | 11.0 | 0.00 | 0.00 | 0.00 | 41 | 1009.3 |
| 20260509153537 | 69 | 12 | 7.0 | 11.0 | 0.00 | 0.00 | 0.00 | 40 | 1009.4 |
| 20260509153037 | 69 | 8 | 5.0 | 9.0 | 0.00 | 0.00 | 0.00 | 40 | 1009.3 |
| 20260509152535 | 69 | 4 | 4.0 | 14.0 | 0.00 | 0.00 | 0.00 | 41 | 1009.1 |
| 20260509152033 | 69 | 329 | 7.0 | 14.0 | 0.00 | 0.00 | 0.00 | 39 | 1009.2 |
| 20260509151551 | 69 | 6 | 5.0 | 13.0 | 0.00 | 0.00 | 0.00 | 39 | 1009.0 |
| 20260509151048 | 69 | 6 | 7.0 | 13.0 | 0.00 | 0.00 | 0.00 | 39 | 1009.1 |
| 20260509150637 | 69 | 323 | 4.0 | 9.0 | 0.00 | 0.00 | 0.00 | 41 | 1008.6 |
| 20260509150032 | 68 | 214 | 4.0 | 7.0 | 0.00 | 0.00 | 0.00 | 40 | 1008.0 |
| 20260509145550 | 68 | 235 | 4.0 | 8.0 | 0.00 | 0.00 | 0.00 | 40 | 1008.1 |
| 20260509145048 | 68 | 189 | 3.0 | 8.0 | 0.00 | 0.00 | 0.00 | 39 | 1008.1 |
| 20260509144545 | 67 | 191 | 4.0 | 9.0 | 0.00 | 0.00 | 0.00 | 42 | 1008.1 |
| 20260509144042 | 66 | 198 | 4.0 | 9.0 | 0.00 | 0.00 | 0.00 | 44 | 1008.1 |
| 20260509143601 | 65 | 195 | 2.0 | 9.0 | 0.00 | 0.00 | 0.00 | 45 | 1008.1 |
| 20260509143040 | 64 | 191 | 5.0 | 8.0 | 0.00 | 0.00 | 0.00 | 46 | 1008.3 |
| 20260509142535 | 63 | 226 | 4.0 | 7.0 | 0.00 | 0.00 | 0.00 | 50 | 1008.3 |
| 20260509142034 | 63 | 228 | 2.0 | 6.0 | 0.00 | 0.00 | 0.00 | 49 | 1008.3 |
| 20260509141532 | 62 | 220 | 2.0 | 5.0 | 0.00 | 0.00 | 0.00 | 51 | 1008.4 |
| 20260509141050 | 61 | 243 | 2.0 | 4.0 | 0.00 | 0.00 | 0.00 | 50 | 1008.3 |
| 20260509140600 | 61 | 245 | 2.0 | 4.0 | 0.00 | 0.00 | 0.00 | 52 | 1008.3 |
| 20260509140039 | 60 | 251 | 2.0 | 4.0 | 0.00 | 0.00 | 0.00 | 54 | 1008.4 |
| 20260509135537 | 60 | 257 | 2.0 | 3.0 | 0.00 | 0.00 | 0.00 | 54 | 1008.4 |
| 20260509135037 | 59 | 257 | 2.0 | 3.0 | 0.00 | 0.00 | 0.00 | 54 | 1008.3 |
| 20260509134535 | 59 | 276 | 2.0 | 3.0 | 0.00 | 0.00 | 0.00 | 55 | 1008.2 |
| 20260509134033 | 58 | 277 | 2.0 | 3.0 | 0.00 | 0.00 | 0.00 | 55 | 1008.2 |
| 20260509133531 | 57 | 277 | 1.0 | 3.0 | 0.00 | 0.00 | 0.00 | 56 | 1008.1 |
| 20260509133049 | 56 | 290 | 2.0 | 3.0 | 0.00 | 0.00 | 0.00 | 56 | 1008.2 |
| 20260509132547 | 55 | 305 | 2.0 | 3.0 | 0.00 | 0.00 | 0.00 | 57 | 1008.3 |
| 20260509132107 | 55 | 336 | 0.0 | 2.0 | 0.00 | 0.00 | 0.00 | 58 | 1008.2 |
| 20260509131544 | 55 | 336 | 1.0 | 3.0 | 0.00 | 0.00 | 0.00 | 60 | 1008.3 |
| 20260509131043 | 54 | 336 | 0.0 | 3.0 | 0.00 | 0.00 | 0.00 | 59 | 1008.3 |
| 20260509130553 | 54 | 336 | 1.0 | 3.0 | 0.00 | 0.00 | 0.00 | 60 | 1008.4 |
| 20260509130051 | 53 | 336 | 1.0 | 3.0 | 0.00 | 0.00 | 0.00 | 61 | 1008.4 |
| 20260509125548 | 53 | 336 | 1.0 | 2.0 | 0.00 | 0.00 | 0.00 | 61 | 1008.3 |
| 20260509125046 | 52 | 336 | 1.0 | 2.0 | 0.00 | 0.00 | 0.00 | 62 | 1008.3 |
| 20260509124544 | 51 | 336 | 1.0 | 2.0 | 0.00 | 0.00 | 0.00 | 64 | 1008.3 |
| 20260509124041 | 51 | 336 | 0.0 | 1.0 | 0.00 | 0.00 | 0.00 | 64 | 1008.2 |
| 20260509123538 | 50 | 336 | 0.0 | 0.0 | 0.00 | 0.00 | 0.00 | 64 | 1008.2 |
| 20260509123039 | 50 | 336 | 0.0 | 0.0 | 0.00 | 0.00 | 0.00 | 64 | 1008.3 |
| 20260509122538 | 50 | 336 | 0.0 | 0.0 | 0.00 | 0.00 | 0.00 | 67 | 1008.1 |
| 20260509122036 | 49 | 336 | 0.0 | 1.0 | 0.00 | 0.00 | 0.00 | 65 | 1008.1 |
| 20260509121553 | 49 | 336 | 0.0 | 1.0 | 0.00 | 0.00 | 0.00 | 65 | 1008.2 |
| 20260509121112 | 49 | 336 | 0.0 | 1.0 | 0.00 | 0.00 | 0.00 | 65 | 1008.1 |
| 20260509120556 | 49 | 336 | 0.0 | 0.0 | 0.00 | 0.00 | 0.00 | 66 | 1008.0 |
| 20260509120035 | 50 | 336 | 0.0 | 0.0 | 0.00 | 0.00 | 0.00 | 65 | 1008.0 |
| 20260509115533 | 50 | 336 | 0.0 | 0.0 | 0.00 | 0.00 | 0.00 | 63 | 1007.9 |
| 20260509115031 | 49 | 336 | 0.0 | 0.0 | 0.00 | 0.00 | 0.00 | 64 | 1007.8 |
| 20260509114611 | 49 | 336 | 0.0 | 0.0 | 0.00 | 0.00 | 0.00 | 63 | 1007.8 |
| 20260509114048 | 50 | 336 | 0.0 | 0.0 | 0.00 | 0.00 | 0.00 | 63 | 1007.8 |
| 20260509113546 | 49 | 336 | 0.0 | 0.0 | 0.00 | 0.00 | 0.00 | 63 | 1007.8 |
| 20260509113045 | 49 | 336 | 0.0 | 0.0 | 0.00 | 0.00 | 0.00 | 64 | 1007.8 |
| 20260509112542 | 49 | 333 | 0.0 | 0.0 | 0.00 | 0.00 | 0.00 | 64 | 1007.7 |
| 20260509112100 | 49 | 333 | 0.0 | 0.0 | 0.00 | 0.00 | 0.00 | 64 | 1007.7 |
| 20260509111538 | 49 | 333 | 0.0 | 1.0 | 0.00 | 0.00 | 0.00 | 64 | 1007.6 |
| 20260509111035 | 50 | 333 | 0.0 | 1.0 | 0.00 | 0.00 | 0.00 | 62 | 1007.5 |
| 20260509110624 | 50 | 333 | 0.0 | 0.0 | 0.00 | 0.00 | 0.00 | 62 | 1007.6 |
| 20260509110042 | 50 | 333 | 0.0 | 0.0 | 0.00 | 0.00 | 0.00 | 62 | 1007.6 |
| 20260509105541 | 50 | 333 | 0.0 | 1.0 | 0.00 | 0.00 | 0.00 | 61 | 1007.6 |
| 20260509105037 | 50 | 333 | 0.0 | 1.0 | 0.00 | 0.00 | 0.00 | 61 | 1007.6 |
| 20260509104535 | 50 | 333 | 0.0 | 1.0 | 0.00 | 0.00 | 0.00 | 61 | 1007.6 |
| 20260509104052 | 51 | 333 | 0.0 | 1.0 | 0.00 | 0.00 | 0.00 | 60 | 1007.6 |
| 20260509103550 | 51 | 333 | 0.0 | 2.0 | 0.00 | 0.00 | 0.00 | 59 | 1007.6 |
| 20260509103046 | 51 | 333 | 1.0 | 2.0 | 0.00 | 0.00 | 0.00 | 60 | 1007.7 |
| 20260509102547 | 51 | 333 | 0.0 | 0.0 | 0.00 | 0.00 | 0.00 | 59 | 1007.6 |
| 20260509102046 | 51 | 333 | 0.0 | 1.0 | 0.00 | 0.00 | 0.00 | 59 | 1007.5 |
| 20260509101544 | 51 | 333 | 0.0 | 1.0 | 0.00 | 0.00 | 0.00 | 59 | 1007.6 |
| 20260509101043 | 51 | 333 | 0.0 | 1.0 | 0.00 | 0.00 | 0.00 | 59 | 1007.5 |
| 20260509100551 | 51 | 333 | 0.0 | 1.0 | 0.00 | 0.00 | 0.00 | 59 | 1007.6 |
| 20260509100031 | 51 | 333 | 0.0 | 1.0 | 0.00 | 0.00 | 0.00 | 59 | 1007.6 |
| 20260509095550 | 52 | 333 | 0.0 | 1.0 | 0.00 | 0.00 | 0.00 | 59 | 1007.6 |
| 20260509095046 | 51 | 333 | 0.0 | 1.0 | 0.00 | 0.00 | 0.00 | 60 | 1007.6 |
| 20260509094543 | 51 | 333 | 0.0 | 0.0 | 0.00 | 0.00 | 0.00 | 59 | 1007.6 |
| 20260509094042 | 52 | 333 | 0.0 | 0.0 | 0.00 | 0.00 | 0.00 | 59 | 1007.6 |
| 20260509093540 | 52 | 333 | 0.0 | 0.0 | 0.00 | 0.00 | 0.00 | 58 | 1007.6 |
| 20260509093036 | 52 | 333 | 0.0 | 0.0 | 0.00 | 0.00 | 0.00 | 58 | 1007.6 |
| 20260509092553 | 52 | 333 | 0.0 | 0.0 | 0.00 | 0.00 | 0.00 | 58 | 1007.5 |
| 20260509092050 | 52 | 333 | 0.0 | 0.0 | 0.00 | 0.00 | 0.00 | 57 | 1007.7 |
| 20260509091549 | 53 | 333 | 0.0 | 1.0 | 0.00 | 0.00 | 0.00 | 58 | 1007.6 |
| 20260509091108 | 53 | 333 | 0.0 | 1.0 | 0.00 | 0.00 | 0.00 | 57 | 1007.6 |
| 20260509090555 | 53 | 333 | 1.0 | 1.0 | 0.00 | 0.00 | 0.00 | 57 | 1007.6 |
| 20260509090038 | 53 | 333 | 0.0 | 0.0 | 0.00 | 0.00 | 0.00 | 56 | 1007.6 |
| 20260509085536 | 54 | 333 | 0.0 | 0.0 | 0.00 | 0.00 | 0.00 | 54 | 1007.6 |
| 20260509085053 | 54 | 333 | 0.0 | 0.0 | 0.00 | 0.00 | 0.00 | 54 | 1007.5 |